Previsão horária em Abdulovo

Hoje, 11 Abril, Domingo

Tempo Temperatura Precipitação Vento Pressão Humidade
00:00 +2°C° 0 mm 7 m/s 758 mmHg 84%
01:00 +1°C° 0 mm 6 m/s 758 mmHg 79%
02:00 +1°C° 0 mm 6 m/s 758 mmHg 78%
03:00 -1°C° 0 mm 6 m/s 759 mmHg 78%
04:00 -1°C° 0 mm 6 m/s 759 mmHg 77%
05:00 -1°C° 0 mm 6 m/s 759 mmHg 77%
06:00 +1°C° 0 mm 6 m/s 759 mmHg 78%
07:00 +1°C° 0 mm 6 m/s 760 mmHg 78%
08:00 +2°C° 0 mm 6 m/s 760 mmHg 76%
09:00 +4°C° 0 mm 7 m/s 760 mmHg 74%
10:00 +5°C° 0 mm 7 m/s 760 mmHg 72%
11:00 +8°C° 0 mm 7 m/s 760 mmHg 69%
12:00 +9°C° 0 mm 6 m/s 760 mmHg 66%
13:00 +10°C° 0 mm 6 m/s 760 mmHg 63%
14:00 +11°C° 0 mm 6 m/s 759 mmHg 62%
15:00 +11°C° 0 mm 6 m/s 759 mmHg 62%
16:00 +13°C° 0 mm 6 m/s 759 mmHg 61%
17:00 +12°C° 0 mm 5 m/s 759 mmHg 67%
18:00 +9°C° 0 mm 5 m/s 759 mmHg 74%
19:00 +8°C° 0 mm 4 m/s 760 mmHg 80%
20:00 +7°C° 0 mm 4 m/s 760 mmHg 82%
21:00 +7°C° 0 mm 3 m/s 760 mmHg 84%
22:00 +5°C° 0 mm 3 m/s 760 mmHg 85%
23:00 +6°C° 0 mm 2 m/s 760 mmHg 84%

Amanhã, 12 Abril, Segunda-feira

Tempo Temperatura Precipitação Vento Pressão Humidade
00:00 +5°C° 0 mm 2 m/s 760 mmHg 83%
01:00 +5°C° 0 mm 2 m/s 760 mmHg 82%
02:00 +5°C° 0 mm 2 m/s 761 mmHg 80%
03:00 +4°C° 0 mm 2 m/s 761 mmHg 77%
04:00 +4°C° 0 mm 2 m/s 761 mmHg 75%
05:00 +6°C° 0 mm 1 m/s 761 mmHg 72%
06:00 +6°C° 0 mm 1 m/s 761 mmHg 68%
07:00 +6°C° 0 mm 1 m/s 761 mmHg 65%
08:00 +8°C° 0 mm 1 m/s 761 mmHg 57%
09:00 +9°C° 0 mm 2 m/s 761 mmHg 49%
10:00 +12°C° 0 mm 2 m/s 761 mmHg 42%
11:00 +13°C° 0 mm 2 m/s 761 mmHg 38%
12:00 +15°C° 0 mm 2 m/s 761 mmHg 34%
13:00 +16°C° 0 mm 2 m/s 760 mmHg 31%
14:00 +17°C° 0 mm 2 m/s 760 mmHg 29%
15:00 +17°C° 0 mm 2 m/s 760 mmHg 28%
16:00 +18°C° 0 mm 2 m/s 760 mmHg 27%
17:00 +16°C° 0 mm 2 m/s 760 mmHg 33%
18:00 +15°C° 0 mm 2 m/s 760 mmHg 38%
19:00 +14°C° 0 mm 2 m/s 760 mmHg 44%
20:00 +13°C° 0 mm 2 m/s 760 mmHg 48%
21:00 +12°C° 0 mm 2 m/s 760 mmHg 52%
22:00 +10°C° 0 mm 2 m/s 761 mmHg 57%
23:00 +9°C° 0 mm 2 m/s 761 mmHg 58%

Depois de amanhã, 13 Abril, Terça-feira

Tempo Temperatura Precipitação Vento Pressão Humidade
00:00 +8°C° 0 mm 2 m/s 761 mmHg 59%
01:00 +7°C° 0 mm 2 m/s 761 mmHg 60%
02:00 +6°C° 0 mm 2 m/s 761 mmHg 60%
03:00 +6°C° 0 mm 2 m/s 761 mmHg 60%
04:00 +5°C° 0 mm 2 m/s 761 mmHg 60%
05:00 +5°C° 0 mm 2 m/s 761 mmHg 60%
06:00 +6°C° 0 mm 2 m/s 762 mmHg 61%
07:00 +6°C° 0 mm 2 m/s 762 mmHg 61%
08:00 +8°C° 0 mm 2 m/s 762 mmHg 54%
09:00 +10°C° 0 mm 3 m/s 762 mmHg 47%
10:00 +11°C° 0 mm 4 m/s 762 mmHg 40%
11:00 +13°C° 0 mm 4 m/s 761 mmHg 37%
12:00 +14°C° 0 mm 4 m/s 761 mmHg 33%
13:00 +15°C° 0 mm 4 m/s 761 mmHg 30%
14:00 +17°C° 0 mm 4 m/s 760 mmHg 29%
15:00 +17°C° 0 mm 4 m/s 760 mmHg 28%
16:00 +18°C° 0 mm 4 m/s 760 mmHg 27%
17:00 +17°C° 0 mm 3 m/s 759 mmHg 33%
18:00 +14°C° 0 mm 3 m/s 759 mmHg 39%
19:00 +13°C° 0 mm 3 m/s 759 mmHg 44%
20:00 +12°C° 0 mm 3 m/s 759 mmHg 50%
21:00 +11°C° 0 mm 3 m/s 759 mmHg 56%
22:00 +10°C° 0 mm 3 m/s 759 mmHg 61%
23:00 +9°C° 0 mm 2 m/s 759 mmHg 66%

14 Abril, Quarta-feira

Tempo Temperatura Precipitação Vento Pressão Humidade
00:00 +8°C° 0 mm 2 m/s 759 mmHg 71%
01:00 +8°C° 0 mm 2 m/s 759 mmHg 75%
02:00 +7°C° 0 mm 2 m/s 759 mmHg 78%
03:00 +7°C° 0 mm 2 m/s 759 mmHg 80%
04:00 +7°C° 0 mm 1 m/s 759 mmHg 83%
05:00 +7°C° 0 mm 1 m/s 758 mmHg 83%
06:00 +8°C° 0 mm 1 m/s 758 mmHg 83%
07:00 +8°C° 0 mm 1 m/s 758 mmHg 83%
08:00 +9°C° 0 mm 2 m/s 758 mmHg 74%
09:00 +12°C° 0 mm 2 m/s 757 mmHg 66%
10:00 +13°C° 0 mm 2 m/s 757 mmHg 58%
11:00 +15°C° 0 mm 2 m/s 757 mmHg 52%
12:00 +16°C° 0 mm 2 m/s 756 mmHg 47%
13:00 +17°C° 0 mm 2 m/s 756 mmHg 41%
14:00 +18°C° 0 mm 2 m/s 755 mmHg 40%
15:00 +19°C° 0 mm 1 m/s 755 mmHg 39%
16:00 +20°C° 0 mm 1 m/s 754 mmHg 38%
17:00 +19°C° 0 mm 1 m/s 754 mmHg 42%
18:00 +18°C° 0 mm 1 m/s 754 mmHg 47%
19:00 +16°C° 0 mm 1 m/s 753 mmHg 51%
20:00 +15°C° 0 mm 1 m/s 753 mmHg 53%
21:00 +14°C° 0 mm 1 m/s 753 mmHg 55%
22:00 +13°C° 0 mm 1 m/s 753 mmHg 57%
23:00 +13°C° 0 mm 1 m/s 752 mmHg 59%

15 Abril, Quinta-feira

Tempo Temperatura Precipitação Vento Pressão Humidade
00:00 +12°C° 0 mm 1 m/s 752 mmHg 62%
01:00 +11°C° 0 mm 1 m/s 752 mmHg 64%
02:00 +11°C° 0 mm 1 m/s 752 mmHg 66%
03:00 +10°C° 0 mm 1 m/s 752 mmHg 68%
04:00 +10°C° 0 mm 1 m/s 751 mmHg 70%
05:00 +10°C° 0 mm 1 m/s 751 mmHg 69%
06:00 +10°C° 0 mm 1 m/s 751 mmHg 68%
07:00 +11°C° 0 mm 1 m/s 751 mmHg 66%
08:00 +12°C° 0 mm 1 m/s 751 mmHg 61%
09:00 +14°C° 0 mm 1 m/s 751 mmHg 55%
10:00 +16°C° 0 mm 1 m/s 750 mmHg 50%
11:00 +18°C° 0 mm 1 m/s 750 mmHg 47%
12:00 +19°C° 0 mm 1 m/s 750 mmHg 44%
13:00 +18°C° 0 mm 0 m/s 749 mmHg 41%
14:00 +18°C° 0 mm 0 m/s 749 mmHg 40%
15:00 +18°C° 0 mm 0 m/s 748 mmHg 38%
16:00 +19°C° 0 mm 0 m/s 748 mmHg 37%
17:00 +18°C° 0 mm 0 m/s 747 mmHg 41%
18:00 +17°C° 0 mm 0 m/s 747 mmHg 44%
19:00 +16°C° 0 mm 0 m/s 747 mmHg 48%
20:00 +15°C° 0 mm 0 m/s 746 mmHg 49%
21:00 +14°C° 0 mm 0 m/s 746 mmHg 51%
22:00 +14°C° 0 mm 0 m/s 746 mmHg 53%
23:00 +13°C° 0 mm 0 m/s 746 mmHg 55%

16 Abril, Sexta-feira

Tempo Temperatura Precipitação Vento Pressão Humidade
00:00 +12°C° 0 mm 0 m/s 745 mmHg 56%
01:00 +13°C° 0 mm 1 m/s 745 mmHg 58%
02:00 +12°C° 0 mm 1 m/s 744 mmHg 61%
03:00 +12°C° 0 mm 1 m/s 744 mmHg 64%
04:00 +11°C° 0 mm 1 m/s 744 mmHg 67%
05:00 +11°C° 0 mm 1 m/s 744 mmHg 68%
06:00 +11°C° 0 mm 1 m/s 743 mmHg 69%
07:00 +12°C° 0 mm 2 m/s 743 mmHg 70%
08:00 +13°C° 0 mm 2 m/s 743 mmHg 64%
09:00 +14°C° 0 mm 3 m/s 743 mmHg 57%
10:00 +16°C° 0 mm 3 m/s 742 mmHg 51%
11:00 +17°C° 0 mm 3 m/s 742 mmHg 48%
12:00 +18°C° 0 mm 3 m/s 742 mmHg 46%
13:00 +19°C° 0 mm 3 m/s 741 mmHg 43%
14:00 +19°C° 0 mm 4 m/s 741 mmHg 47%
15:00 +18°C° 0 mm 4 m/s 741 mmHg 50%
16:00 +16°C° 0 mm 5 m/s 741 mmHg 54%
17:00 +17°C° 0 mm 4 m/s 741 mmHg 55%
18:00 +16°C° 0 mm 3 m/s 741 mmHg 56%
19:00 +16°C° 0 mm 2 m/s 740 mmHg 57%
20:00 +15°C° 0 mm 2 m/s 740 mmHg 58%
21:00 +14°C° 0 mm 2 m/s 740 mmHg 59%
22:00 +14°C° 0 mm 2 m/s 740 mmHg 60%
23:00 +14°C° 0 mm 2 m/s 740 mmHg 60%
Mostrar mais

Necessitamos do seu Consentimento

A Meteoprog e os seus Fornecedores de Serviços podem armazenar e aceder a dados pessoais como cookies, identificadores do dispositivo ou outras tecnologias semelhantes existentes no seu dispositivo e processar estes dados para personalizar conteúdos e anúncios, assim como funcionalidades nas redes sociais e análise de tráfego.

  • Armazenar e/ou aceder a informações no seu dispositivo

    Os cookies, identificadores do dispositivo ou outras informações podem ser armazenados ou acedidos no seu dispositivo, para os fins acima indicados.

  • Anúncios e conteúdos personalizados, medição de anúncios e conteúdos, dados sobre o público-alvo e desenvolvimento de produtos

    Os anúncios e os conteúdos podem ser personalizados com base num perfil. Podem ser adicionados dados adicionais para uma maior personalização dos anúncios e dos conteúdos. A eficácia dos anúncios e dos conteúdos pode ser medida. Podem ser obtidas informações sobre o público que visualizou os anúncios e os conteúdos. Estes dados podem ser usados para desenvolver ou melhorar sistemas, softwares ou a experiência do utilizador.

Ao clicar em "Eu concordo”, permitirá o uso de cookies, identificadores do dispositivo e web beacons mencionados ou outras tecnologias semelhantes. As configurações do navegador do seu dispositivo podem ser alteradas.

Para certos fins, podem ser invocados interesses legítimos ao invés de consentimento. Pode ler mais informação sobre este assunto na nossa Política de Privacidade e Cookies.